Starlink 6090

operational
NORAD ID: 56095 Int'l Des: 2023-046 Owner: SPXS Country: US Constellation: starlink
LEOCIRCULAR

About Starlink 6090

Description loading...

Live Position

Loading 3D Globe...

Upcoming Passes

Altitude History

Altitude vs Time

uPlot chart will show altitude changes over time

Two-Line Element Set

1 56095U 23046C 25349.43173856 .00000886 00000-0 80668-4 0 9994
2 56095 43.0037 257.1115 0001142 266.0700 94.0012 15.02540765149381
Epoch: Dec 15, 2025 • Age: 26 hours

Current Status

Altitude 558.3 km
Velocity 7.58 km/s
Sub-Earth Point 8.65°N, 3.9°W
Launch Date Mar 29, 2023
Age 2.7 years
Type internet

Technical Details

Classification Payload
Mass 305.00 kg
Dry Mass 290.00 kg
Total Mass 305.00 kg
Length 0.20 m
Diameter 2.80 m
Span 9.00 m
Shape Box + pan
Manufacturer SPXS
Bus Type Starlink
Phase Status In Orbit
Owner/State SPXS/US

Large Constellations

Loading constellations...